Location: Codford Saint Peter
(51.1597°N, 2.0531°W)
Time: 13:29:32
(UTC+00:00)

Spot 2 Rocket - Pass Details

Date: 18 September 2020
Orbit: 758 x 772 km, 98.6° (Epoch: 22 October)

Event Time Altitude Azimuth Distance (km) Brightness Sun altitude
Exits shadow 21:28:19 66° 263° (W) 832 3.7 -28.2°
Drops below altitude 10° 21:33:17 10° 340° (NNW) 2,300 6.8 -28.7°
Sets 21:35:37 0° 344° (NNW) 3,230 7.7 -28.9°
